Zurück zum Katalog

METEOR 3-1 DEB

LostPO
NORAD 45519·DEBRIS·🇷🇺 Russia

Gestartet Oct 24, 1985 von Plesetsk Cosmodrome

Loading…

Nächste Überflüge (nächste 24 Stunden)

TLE

VeraltetSource: Space-Track

Epoche: Mar 8, 2025, 12:15 UTC

1 45519U 85100E   25067.51107780  .00001087  00000-0  26003-2 0  9996
2 45519  82.5472 353.0004 0023416  42.7615 317.5326 13.21776846493738

Verfolge METEOR 3-1 DEB in Echtzeit mit AllMySat

Download on the App Store